Location: Riddle Hill
(39.7867°N, 89.7645°W)
Time: 20:39:21
(UTC+00:00)

Cosmos 1400 Rocket - Pass Details

Date: 29 October 2020
Orbit: 521 x 568 km, 81.2° (Epoch: 30 November)

Event Time Altitude Azimuth Distance (km) Brightness Sun altitude
Rises 23:26:48 0° 178° (S) 2,750 6.5 -5.8°
Reaches altitude 10° 23:29:00 10° 174° (S) 1,856 5.6 -6.2°
Maximum altitude 23:33:01 57° 96° (E) 666 2.9 -7.0°
Drops below altitude 10° 23:37:02 10° 18° (NNE) 1,852 5.2 -7.7°
Sets 23:39:13 0° 14° (NNE) 2,744 6.1 -8.2°
